Location: Bodest
(46.3000°N, 22.5667°E)
Time: 20:19:26
(UTC+00:00)

ATLAS 3B R/B - Pass Details

Date: 16 October 2021
Orbit: 989 x 1206 km, 63.8° (Epoch: 25 November)

Event Time Altitude Azimuth Distance (km) Brightness Sun altitude
Rises 16:36:51 0° 218° (SW) 3,701 6.2 -10.3°
Reaches altitude 10° 16:39:23 10° 218° (SW) 2,768 5.5 -10.8°
Maximum altitude 16:45:53 86° 307° (NW) 1,038 2.7 -11.9°
Drops below altitude 10° 16:52:45 10° 38° (NE) 2,907 4.6 -13.1°
Sets 16:55:28 0° 39° (NE) 3,898 5.3 -13.5°
